Time,TemperatureF,DewpointF,PressureIn,WindDirection,WindDirectionDegrees,WindSpeedMPH,WindSpeedGustMPH,Humidity,HourlyPrecipIn,Conditions,Clouds,dailyrainin,SoftwareType,DateUTC
2013-11-15 00:14:00,34.8,24.0,30.10,NE,47,0.0,1.0,66,0.00,,,0.00,weatherlink.com 1.10,2013-11-15 05:14:00,
2013-11-15 00:29:00,34.7,24.0,30.09,ENE,73,0.0,1.0,66,0.00,,,0.00,weatherlink.com 1.10,2013-11-15 05:29:00,
2013-11-15 00:44:00,34.7,24.0,30.10,ENE,76,1.0,2.0,65,0.00,,,0.00,weatherlink.com 1.10,2013-11-15 05:44:00,
2013-11-15 00:59:00,34.5,23.0,30.11,ENE,66,2.0,2.0,64,0.00,,,0.00,weatherlink.com 1.10,2013-11-15 05:59:00,
2013-11-15 01:14:00,34.5,23.0,30.11,ENE,67,0.0,0.0,64,0.00,,,0.00,weatherlink.com 1.10,2013-11-15 06:14:00,
2013-11-15 01:29:00,35.4,23.0,30.10,NE,39,1.0,2.0,60,0.00,,,0.00,weatherlink.com 1.10,2013-11-15 06:29:00,
2013-11-15 01:44:00,35.4,23.0,30.10,ENE,67,1.0,2.0,61,0.00,,,0.00,weatherlink.com 1.10,2013-11-15 06:44:00,
2013-11-15 01:59:00,35.1,22.0,30.11,NE,46,2.0,2.0,59,0.00,,,0.00,weatherlink.com 1.10,2013-11-15 06:59:00,
2013-11-15 02:14:00,35.2,23.0,30.11,NE,39,2.0,2.0,62,0.00,,,0.00,weatherlink.com 1.10,2013-11-15 07:14:00,
2013-11-15 02:29:00,35.1,22.0,30.11,NE,55,2.0,3.0,60,0.00,,,0.00,weatherlink.com 1.10,2013-11-15 07:29:00,
2013-11-15 02:44:00,35.1,21.0,30.11,ENE,74,1.0,3.0,57,0.00,,,0.00,weatherlink.com 1.10,2013-11-15 07:44:00,
2013-11-15 02:59:00,35.5,21.0,30.11,ENE,67,2.0,2.0,57,0.00,,,0.00,weatherlink.com 1.10,2013-11-15 07:59:00,
2013-11-15 03:14:00,35.2,22.0,30.11,NE,50,3.0,3.0,58,0.00,,,0.00,weatherlink.com 1.10,2013-11-15 08:14:00,
2013-11-15 03:29:00,35.1,21.0,30.11,ENE,57,1.0,2.0,58,0.00,,,0.00,weatherlink.com 1.10,2013-11-15 08:29:00,
2013-11-15 03:44:00,-90.0,-96.0,30.11,ENE,71,0.0,2.0,58,0.00,,,0.00,weatherlink.com 1.10,2013-11-15 08:44:00,
2013-11-15 04:00:00,-90.0,-96.0,30.12,North,-999,-999.0,-999.0,58,0.00,,,0.00,weatherlink.com 1.10,2013-11-15 09:00:00,
2013-11-15 04:15:00,-90.0,-96.0,30.13,North,-999,-999.0,-999.0,58,0.00,,,0.00,weatherlink.com 1.10,2013-11-15 09:15:00,
2013-11-15 04:30:00,-90.0,-96.0,30.13,North,-999,-999.0,-999.0,58,0.00,,,0.00,weatherlink.com 1.10,2013-11-15 09:30:00,
2013-11-15 04:45:00,-90.0,-96.0,30.14,North,-999,-999.0,-999.0,58,0.00,,,0.00,weatherlink.com 1.10,2013-11-15 09:45:00,
2013-11-15 05:00:00,-90.0,-96.0,30.15,North,-999,-999.0,-999.0,58,0.00,,,0.00,weatherlink.com 1.10,2013-11-15 10:00:00,
2013-11-15 05:15:00,-90.0,-96.0,30.16,North,-999,-999.0,-999.0,58,0.00,,,0.00,weatherlink.com 1.10,2013-11-15 10:15:00,
2013-11-15 05:30:00,-90.0,-96.0,30.17,North,-999,-999.0,-999.0,58,0.00,,,0.00,weatherlink.com 1.10,2013-11-15 10:30:00,
2013-11-15 05:45:00,-90.0,-96.0,30.17,North,-999,-999.0,-999.0,58,0.00,,,0.00,weatherlink.com 1.10,2013-11-15 10:45:00,
2013-11-15 06:00:00,-90.0,-96.0,30.17,North,-999,-999.0,-999.0,58,0.00,,,0.00,weatherlink.com 1.10,2013-11-15 11:00:00,
2013-11-15 06:15:00,-90.0,-96.0,30.18,North,-999,-999.0,-999.0,58,0.00,,,0.00,weatherlink.com 1.10,2013-11-15 11:15:00,
2013-11-15 06:30:00,-90.0,-96.0,30.19,North,-999,-999.0,-999.0,58,0.00,,,0.00,weatherlink.com 1.10,2013-11-15 11:30:00,
2013-11-15 06:45:00,-90.0,-96.0,30.20,North,-999,-999.0,-999.0,58,0.00,,,0.00,weatherlink.com 1.10,2013-11-15 11:45:00,
2013-11-15 07:00:00,-90.0,-96.0,30.20,North,-999,-999.0,-999.0,58,0.00,,,0.00,weatherlink.com 1.10,2013-11-15 12:00:00,
2013-11-15 07:15:00,35.8,21.0,30.21,NE,36,1.0,2.0,55,0.00,,,0.00,weatherlink.com 1.10,2013-11-15 12:15:00,
2013-11-15 07:31:00,36.7,20.0,30.22,NW,325,0.0,3.0,52,0.00,,,0.00,weatherlink.com 1.10,2013-11-15 12:31:00,
2013-11-15 07:46:00,37.0,21.0,30.23,East,84,1.0,2.0,53,0.00,,,0.00,weatherlink.com 1.10,2013-11-15 12:46:00,
2013-11-15 08:01:00,37.8,21.0,30.22,ENE,78,0.0,1.0,52,0.00,,,0.00,weatherlink.com 1.10,2013-11-15 13:01:00,
2013-11-15 08:16:00,39.6,21.0,30.22,WSW,251,0.0,2.0,47,0.00,,,0.00,weatherlink.com 1.10,2013-11-15 13:16:00,
2013-11-15 08:31:00,40.1,22.0,30.22,East,80,1.0,2.0,48,0.00,,,0.00,weatherlink.com 1.10,2013-11-15 13:31:00,
2013-11-15 08:46:00,41.5,21.0,30.22,SSW,196,0.0,6.0,45,0.00,,,0.00,weatherlink.com 1.10,2013-11-15 13:46:00,
2013-11-15 09:01:00,43.3,23.0,30.22,South,169,0.0,3.0,45,0.01,,,0.01,weatherlink.com 1.10,2013-11-15 14:01:00,
2013-11-15 09:16:00,44.2,23.0,30.22,NE,44,0.0,3.0,43,0.01,,,0.01,weatherlink.com 1.10,2013-11-15 14:16:00,
2013-11-15 09:31:00,44.0,22.0,30.22,East,100,0.0,4.0,42,0.01,,,0.01,weatherlink.com 1.10,2013-11-15 14:31:00,
2013-11-15 09:46:00,43.3,23.0,30.23,ESE,107,0.0,5.0,45,0.02,,,0.02,weatherlink.com 1.10,2013-11-15 14:46:00,
2013-11-15 10:01:00,44.3,22.0,30.23,SE,136,0.0,1.0,42,0.01,,,0.02,weatherlink.com 1.10,2013-11-15 15:01:00,
2013-11-15 10:16:00,45.8,23.0,30.23,ESE,119,2.0,3.0,41,0.02,,,0.03,weatherlink.com 1.10,2013-11-15 15:16:00,
2013-11-15 10:31:00,47.1,25.0,30.22,South,169,2.0,5.0,43,0.03,,,0.04,weatherlink.com 1.10,2013-11-15 15:31:00,
2013-11-15 10:47:00,46.8,25.0,30.22,ENE,68,2.0,4.0,43,0.03,,,0.05,weatherlink.com 1.10,2013-11-15 15:47:00,
2013-11-15 11:02:00,45.5,23.0,30.22,ESE,121,0.0,1.0,42,0.03,,,0.06,weatherlink.com 1.10,2013-11-15 16:02:00,
2013-11-15 11:17:00,44.7,26.0,30.21,NNE,16,0.0,2.0,48,0.04,,,0.07,weatherlink.com 1.10,2013-11-15 16:17:00,
2013-11-15 11:32:00,44.2,25.0,30.22,SSE,148,0.0,3.0,47,0.03,,,0.07,weatherlink.com 1.10,2013-11-15 16:32:00,
2013-11-15 11:47:00,44.4,24.0,30.21,SE,144,0.0,1.0,44,0.03,,,0.08,weatherlink.com 1.10,2013-11-15 16:47:00,
2013-11-15 12:02:00,44.8,24.0,30.21,ESE,112,0.0,4.0,44,0.02,,,0.08,weatherlink.com 1.10,2013-11-15 17:02:00,
2013-11-15 12:17:00,45.2,23.0,30.21,SW,225,1.0,7.0,41,0.02,,,0.09,weatherlink.com 1.10,2013-11-15 17:17:00,
2013-11-15 12:32:00,45.0,25.0,30.20,NNW,331,1.0,4.0,45,0.02,,,0.09,weatherlink.com 1.10,2013-11-15 17:32:00,
2013-11-15 12:47:00,45.0,25.0,30.20,SW,226,1.0,3.0,45,0.01,,,0.09,weatherlink.com 1.10,2013-11-15 17:47:00,
2013-11-15 13:02:00,45.5,23.0,30.19,WSW,248,1.0,4.0,41,0.02,,,0.10,weatherlink.com 1.10,2013-11-15 18:02:00,
2013-11-15 13:17:00,46.1,23.0,30.19,East,82,0.0,7.0,41,0.01,,,0.10,weatherlink.com 1.10,2013-11-15 18:17:00,
2013-11-15 13:32:00,46.1,22.0,30.19,South,191,0.0,4.0,39,0.02,,,0.11,weatherlink.com 1.10,2013-11-15 18:32:00,
2013-11-15 13:47:00,46.0,24.0,30.18,NE,39,0.0,5.0,42,0.02,,,0.11,weatherlink.com 1.10,2013-11-15 18:47:00,
2013-11-15 14:02:00,45.8,19.0,30.18,East,95,2.0,4.0,35,0.01,,,0.11,weatherlink.com 1.10,2013-11-15 19:02:00,
2013-11-15 14:18:00,45.9,21.0,30.19,SSE,158,0.0,3.0,37,0.01,,,0.11,weatherlink.com 1.10,2013-11-15 19:18:00,
2013-11-15 14:33:00,45.7,22.0,30.18,ENE,76,2.0,2.0,39,0.00,,,0.11,weatherlink.com 1.10,2013-11-15 19:33:00,
2013-11-15 14:48:00,45.7,20.0,30.18,East,84,1.0,2.0,36,0.01,,,0.12,weatherlink.com 1.10,2013-11-15 19:48:00,
2013-11-15 15:03:00,44.6,21.0,30.19,NE,51,1.0,2.0,39,0.01,,,0.12,weatherlink.com 1.10,2013-11-15 20:03:00,
2013-11-15 15:18:00,43.8,22.0,30.19,NE,47,0.0,3.0,43,0.01,,,0.12,weatherlink.com 1.10,2013-11-15 20:18:00,
2013-11-15 15:33:00,42.2,22.0,30.20,ENE,62,1.0,2.0,44,0.01,,,0.12,weatherlink.com 1.10,2013-11-15 20:33:00,
2013-11-15 15:48:00,42.8,22.0,30.20,NE,44,0.0,3.0,44,0.00,,,0.12,weatherlink.com 1.10,2013-11-15 20:48:00,
2013-11-15 16:03:00,42.2,23.0,30.20,ENE,58,1.0,2.0,47,0.00,,,0.12,weatherlink.com 1.10,2013-11-15 21:03:00,
2013-11-15 16:18:00,40.8,22.0,30.20,ENE,59,1.0,2.0,47,0.00,,,0.12,weatherlink.com 1.10,2013-11-15 21:18:00,
2013-11-15 16:33:00,40.3,24.0,30.20,NE,49,2.0,2.0,52,0.00,,,0.12,weatherlink.com 1.10,2013-11-15 21:33:00,
2013-11-15 16:48:00,39.5,23.0,30.20,NE,46,2.0,2.0,51,0.00,,,0.12,weatherlink.com 1.10,2013-11-15 21:48:00,
2013-11-15 17:03:00,40.2,22.0,30.21,NE,55,2.0,2.0,49,0.00,,,0.12,weatherlink.com 1.10,2013-11-15 22:03:00,
2013-11-15 17:18:00,39.6,23.0,30.21,NE,46,2.0,2.0,52,0.00,,,0.12,weatherlink.com 1.10,2013-11-15 22:18:00,
2013-11-15 17:34:00,38.9,23.0,30.21,NE,46,2.0,2.0,54,0.00,,,0.12,weatherlink.com 1.10,2013-11-15 22:34:00,
2013-11-15 17:49:00,38.7,22.0,30.21,NE,46,1.0,2.0,52,0.00,,,0.12,weatherlink.com 1.10,2013-11-15 22:49:00,
2013-11-15 18:04:00,39.8,22.0,30.21,NE,51,2.0,2.0,49,0.00,,,0.12,weatherlink.com 1.10,2013-11-15 23:04:00,
2013-11-15 18:19:00,39.5,22.0,30.21,NE,47,1.0,3.0,49,0.00,,,0.12,weatherlink.com 1.10,2013-11-15 23:19:00,
2013-11-15 18:34:00,38.9,23.0,30.21,NE,48,2.0,3.0,54,0.00,,,0.12,weatherlink.com 1.10,2013-11-15 23:34:00,
2013-11-15 18:49:00,39.4,22.0,30.22,NE,44,2.0,3.0,50,0.00,,,0.12,weatherlink.com 1.10,2013-11-15 23:49:00,
2013-11-15 19:04:00,40.5,22.0,30.22,ENE,61,2.0,3.0,48,0.00,,,0.12,weatherlink.com 1.10,2013-11-16 00:04:00,
2013-11-15 19:19:00,40.4,23.0,30.22,NE,48,0.0,2.0,50,0.00,,,0.12,weatherlink.com 1.10,2013-11-16 00:19:00,
2013-11-15 19:34:00,40.2,22.0,30.23,NE,50,2.0,3.0,48,0.00,,,0.12,weatherlink.com 1.10,2013-11-16 00:34:00,
2013-11-15 19:49:00,39.8,22.0,30.24,NE,46,2.0,3.0,49,0.00,,,0.12,weatherlink.com 1.10,2013-11-16 00:49:00,
2013-11-15 20:04:00,39.6,22.0,30.24,NE,37,1.0,2.0,49,0.00,,,0.12,weatherlink.com 1.10,2013-11-16 01:04:00,
2013-11-15 20:19:00,39.9,20.0,30.24,NE,38,0.0,1.0,46,0.00,,,0.12,weatherlink.com 1.10,2013-11-16 01:19:00,
2013-11-15 20:34:00,39.0,20.0,30.24,NE,38,0.0,1.0,46,0.00,,,0.12,weatherlink.com 1.10,2013-11-16 01:34:00,
2013-11-15 20:49:00,38.6,19.0,30.24,NE,38,1.0,1.0,46,0.00,,,0.12,weatherlink.com 1.10,2013-11-16 01:49:00,
2013-11-15 21:05:00,38.0,20.0,30.24,NE,38,1.0,1.0,49,0.00,,,0.12,weatherlink.com 1.10,2013-11-16 02:05:00,
2013-11-15 21:20:00,38.0,20.0,30.24,NE,38,1.0,1.0,49,0.00,,,0.12,weatherlink.com 1.10,2013-11-16 02:20:00,
2013-11-15 21:35:00,37.9,21.0,30.24,NE,38,1.0,2.0,50,0.00,,,0.12,weatherlink.com 1.10,2013-11-16 02:35:00,
2013-11-15 21:50:00,38.3,21.0,30.24,NE,38,1.0,1.0,50,0.00,,,0.12,weatherlink.com 1.10,2013-11-16 02:50:00,
2013-11-15 22:05:00,38.0,22.0,30.25,NE,37,1.0,1.0,52,0.00,,,0.12,weatherlink.com 1.10,2013-11-16 03:05:00,
2013-11-15 22:20:00,38.4,22.0,30.26,NE,38,1.0,1.0,51,0.00,,,0.12,weatherlink.com 1.10,2013-11-16 03:20:00,
2013-11-15 22:35:00,38.1,21.0,30.26,NE,38,1.0,2.0,50,0.00,,,0.12,weatherlink.com 1.10,2013-11-16 03:35:00,
2013-11-15 22:50:00,38.3,22.0,30.27,NE,38,1.0,1.0,52,0.00,,,0.12,weatherlink.com 1.10,2013-11-16 03:50:00,
2013-11-15 23:05:00,38.0,23.0,30.27,NE,38,1.0,2.0,54,0.00,,,0.12,weatherlink.com 1.10,2013-11-16 04:05:00,
2013-11-15 23:20:00,38.1,22.0,30.28,NE,38,1.0,1.0,53,0.00,,,0.12,weatherlink.com 1.10,2013-11-16 04:20:00,
2013-11-15 23:35:00,38.1,22.0,30.28,NE,38,2.0,2.0,53,0.00,,,0.12,weatherlink.com 1.10,2013-11-16 04:35:00,
2013-11-15 23:50:00,38.4,22.0,30.29,NE,38,0.0,2.0,52,0.00,,,0.12,weatherlink.com 1.10,2013-11-16 04:50:00,